Starlink 32788

operational
NORAD ID: 62502 Int'l Des: 2025-003 Owner: SPXS Country: US Constellation: starlink
LEOCIRCULAR

关于 Starlink 32788

正在加载描述...

实时位置

正在加载3D地球...

即将过境

高度历史

Altitude vs Time

uPlot chart will show altitude changes over time

两行轨道根数

1 62502U 25003R 25347.25578664 .00030990 00000-0 11302-2 0 9999
2 62502 43.0012 57.0108 0000814 220.6565 139.4226 15.27601329 53334
Epoch: Dec 13, 2025 • Age: 30 hours

当前状态

高度 482.3 km
速度 7.63 km/s
星下点 15.29°N, 162.72°E
发射日期 Jan 6, 2025
运行时间 0.9 years
类型 internet

技术详情

分类 Payload
质量 730.00 kg
干质量 700.00 kg
总质量 730.00 kg
长度 0.30 m
直径 4.10 m
跨度 29.00 m
形状 Box + pan
制造商 SPXS
平台类型 Starlink V2M
阶段状态 In Orbit
所有者/国家 SPXS/US

大型星座

Loading constellations...